Погода в Сангаре

Россия / Республика Саха (Якутия)     63°55′24″N   127°27′59″E
темп.,
°C
ветер,
м/с
пор.,
м/с
влажн.,
%
обл.,
%
осадки,
мм/ч
давл.,
гПа
погр.,
м
3 марта, ср
ср300:00−34з119993 0.0 102324
03:00−35з119996 0.1 102227
06:00−34з1199100 0.0 102256
09:00−33з1299100 0.1 1021130
12:00−31з2396100 0.1 1020315
15:00−30з3595100 0.2 1018408
18:00−31зсз3697100 0.1 1018331
21:00−31зсз3797100 0.3 1018317
4 марта, чт
чт400:00−31зсз3697100 0.2 1017330
03:00−32зсз3696100 0.3 1016320
06:00−36зсз3597100 0.0 1016147
09:00−37зсз2497100 0.0 1017182
12:00−35зсз3596100 0.1 1018353
15:00−34зсз3595100 0.1 1020389
18:00−35зсз3696100 0.0 1022236
21:00−39зсз229791 0.1 102448
5 марта, пт
пт500:00−41зсз229757 0.0 102428
03:00−42зсз229879 0.0 102533
06:00−42з229995 0.0 102645
09:00−40з259890 0.0 1026156
12:00−34зсз369488 0.0 1026341
15:00−32зсз479492 0.0 1026403
18:00−35зсз379698 0.0 1027190
21:00−37зсз239663 0.0 102764
6 марта, сб
сб600:00−38зсз249816 0.0 102672
03:00−39з239824 0.0 102657
06:00−40з239955 0.0 102656
09:00−38з139865 0.0 102699
12:00−32з239250 0.0 1024267
15:00−29з239356 0.0 1024300
18:00−33зсз129944 0.0 102419
21:00−36зсз119922 0.0 102419
7 марта, вс
вс700:00−37зсз00991 0.0 102419
03:00−37ююз00990 0.0 102419
06:00−37з011001 0.0 102419
09:00−34вюв00971 0.0 102327
12:00−28ююз119220 0.0 1022231
15:00−26ю119145 0.0 1021263
18:00−31юв119948 0.0 102119
21:00−32вюв129528 0.0 102119